Location: Gu�tanj
(46.5431°N, 14.9692°E)
Time: 18:42:01
(UTC+00:00)

Meteor 1-23 Rocket - Pass Details

Date: 03 March 2021
Orbit: 838 x 887 km, 81.3° (Epoch: 19 April)

Event Time Altitude Azimuth Distance (km) Brightness Sun altitude
Rises 19:21:51 0° 348° (NNW) 3,407 7.8 -26.7°
Reaches altitude 10° 19:24:16 10° 348° (NNW) 2,471 7.0 -27.1°
Maximum altitude 19:29:52 84° 262° (W) 859 4.1 -28.0°
Enters shadow 19:30:10 79° 207° (SSW) 869 4.1 -28.0°
